Location: Chrząstowo
(52.0654°N, 17.1290°E)
Time: 11:35:41
(UTC+01:00)

Envisat - Pass Details

Date: 18 December 2019
Orbit: 764 x 766 km, 98.1° (Epoch: 21 January)

Event Time Altitude Azimuth Distance (km) Brightness Sun altitude
Rises 17:00:43 0° 148° (SSE) 3,224 6.1 -11.4°
Reaches altitude 10° 17:03:03 10° 144° (SE) 2,302 5.3 -11.7°
Maximum altitude 17:07:58 53° 69° (ENE) 940 3.1 -12.4°
Drops below altitude 10° 17:12:55 10° 353° (N) 2,317 5.3 -13.1°
Sets 17:15:17 0° 349° (N) 3,248 6.1 -13.5°
